[[{"header":{"parameterUnit":"m.s-1","parameterCategory":1,"la1":30.2991,"la2":30.254,"lo1":-89.0895,"lo2":-89.0444,"dy":0.0017,"dx":0.0017,"nx":28,"ny":28,"refTime":"2024-05-25T21:00:00:Z","depth":0,"parameterNumber":2,"parameterNumberName":"U-component_of_WINDS"},"data":[0,0,0,0,0,0,0,0,0,0,0,0,0,0,0,0,0,0,0,0,0,0,0,0,0,0,0,0,0,0,0,0,0,0,0,0,0,0,0,0,0,0,0,0,0,0,0,0,0,0,0,0,0,0,0,0,0,0,-1.0989,-1.0989,0,-1.0992,-1.0992,-1.0992,-1.0965,-1.0964,-1.0963,-1.0962,-1.0965,-1.0966,-1.0967,0,0,0,0,0,0,0,0,0,0,0,0,0,-1.0962,-1.0962,-1.0989,-1.0989,-1.099,-1.0992,-1.0992,-1.0992,-1.0965,-1.0964,-1.0963,-1.0962,-1.0965,-1.0966,-1.0967,0,0,0,0,0,0,0,0,0,0,0,0,0,-1.097,-1.0963,-1.0989,-1.0976,-1.0975,-1.0992,-1.0992,-1.0992,-1.0965,-1.0964,-1.0963,-1.0962,-1.0965,-1.0966,-1.0967,-1.0996,0,0,-1.097,-1.0971,0,0,0,0,0,0,0,0,-1.0969,-1.0971,-1.0978,-1.0977,-1.0976,-1.0977,-1.0983,-1.0993,-1.0965,-1.0969,-1.0962,-1.0961,-1.097,-1.0971,-1.0974,-1.0996,-1.0997,-1.0971,-1.0971,-1.0972,-1.0972,0,0,0,0,0,0,0,-1.0969,-1.0971,-1.099,-1.0978,-1.0977,-1.097,-1.097,-1.0985,-1.0976,-1.0968,-1.0966,-1.0967,-1.0969,-1.0972,-1.0973,-1.0997,-1.097,-1.0971,-1.0972,-1.0973,-1.1043,-1.1044,0,0,0,0,0,0,-1.097,-1.097,-1.099,-1.099,-1.097,-1.0972,-1.0972,-1.0978,-1.0975,-1.0974,-1.0968,-1.0966,-1.0971,-1.0972,-1.0973,-1.1007,-1.0972,-1.0973,-1.0973,-1.1042,-1.1043,-1.1045,0,0,0,0,0,0,-1.097,-1.0972,-1.099,-1.098,-1.0982,-1.0973,-1.098,-1.0978,-1.0982,-1.0975,-1.0973,-1.0973,-1.097,-1.0972,-1.0991,-1.1006,-1.0973,-1.0974,-1.104,-1.1042,-1.1044,-1.1074,0,0,0,0,0,0,-1.0969,-1.0972,-1.0983,-1.098,-1.0982,-1.1007,-1.0981,-1.0979,-1.0984,-1.0981,-1.0979,-1.0978,-1.0969,-1.0989,-1.0992,-1.1007,-1.0975,-1.1039,-1.1041,-1.1043,-1.1072,-1.1077,-1.1081,0,0,0,0,0,-1.0968,-1.0992,-1.0984,-1.0986,-1.0996,-1.1008,-1.101,-1.0999,-1.0985,-1.0996,-1.0992,-1.0978,-1.1005,-1.0991,-1.0994,-1.101,-1.1038,-1.1041,-1.1043,-1.107,-1.1076,-1.1081,0,0,0,0,0,0,-1.0997,-1.0991,-1.0982,-1.1006,-1.1008,-1.1004,-1.1017,-1.1006,-1.1012,-1.1009,-1.0996,-1.0996,-1.1017,-1.1016,-1.1001,-1.1038,-1.1019,-1.1022,-1.1038,-1.1044,-1.1049,-1.1048,-1.0976,0,0,0,0,0,-1.1006,-1.1017,-1.1011,-1.1033,-1.1034,-1.1026,-1.1031,-1.1022,-1.1024,-1.1025,-1.1022,-1.1024,-1.1032,-1.1038,-1.1046,-1.1072,-1.1071,-1.1085,-1.1089,-1.1093,-1.1096,-1.1109,-1.1115,-1.1053,-1.1053,-1.1053,0,0,-1.1025,-1.1024,-1.1031,-1.1039,-1.1039,-1.105,-1.1027,-1.1039,-1.1047,-1.1027,-1.1044,-1.1042,-1.1043,-1.1066,-1.1075,-1.1065,-1.1113,-1.1097,-1.11,-1.11,-1.1112,-1.1118,-1.1123,-1.1055,-1.1055,-1.1054,0,0,-1.1065,-1.1066,-1.1083,-1.1084,-1.1085,-1.1079,-1.1083,-1.1081,-1.1078,-1.1096,-1.108,-1.1089,-1.1105,-1.1106,-1.1109,-1.1149,-1.1137,-1.1152,-1.1176,-1.1189,-1.1194,-1.1198,-1.1211,-1.1216,-1.1155,-1.1155,-1.1155,0,-1.1089,-1.1105,-1.1093,-1.1107,-1.111,-1.1092,-1.1109,-1.1111,-1.1114,-1.1117,-1.1106,-1.1124,-1.1124,-1.1146,-1.1156,-1.1159,-1.1163,-1.1152,-1.1194,-1.1198,-1.1202,-1.1214,-1.122,-1.1157,-1.1157,-1.1157,-1.1157,0,-1.1133,-1.1144,-1.1158,-1.1162,-1.1167,-1.1182,-1.1173,-1.118,-1.1171,-1.1167,-1.1184,-1.1183,-1.119,-1.1195,-1.1187,-1.1215,-1.1209,-1.1196,-1.1176,-1.121,-1.1221,-1.1226,-1.116,-1.1159,-1.1159,-1.1158,0,0,-1.1191,-1.1188,-1.1193,-1.1194,-1.1193,-1.1202,-1.1216,-1.1223,-1.1228,-1.1231,-1.1243,-1.1256,-1.1244,-1.1247,-1.1239,-1.1251,-1.1281,-1.1236,-1.1236,-1.1244,-1.1312,-1.132,-1.1326,-1.1274,-1.1275,-1.1275,-1.1311,0,-1.1229,-1.1253,-1.1243,-1.1268,-1.1278,-1.1261,-1.1273,-1.1274,-1.1271,-1.1278,-1.1274,-1.1283,-1.1268,-1.1269,-1.128,-1.1275,-1.1295,-1.1273,-1.1283,-1.1284,-1.1282,-1.1332,-1.1342,-1.1375,-1.1316,-1.1317,-1.1317,0,-1.1277,-1.1281,-1.1307,-1.1304,-1.1308,-1.1319,-1.1323,-1.1331,-1.1332,-1.1328,-1.1332,-1.1321,-1.1335,-1.1316,-1.1335,-1.132,-1.1324,-1.1323,-1.1324,-1.1323,-1.1302,-1.1332,-1.1386,-1.1391,-1.1324,-1.1324,-1.1323,0,-1.1315,-1.1328,-1.1344,-1.1346,-1.1343,-1.1351,-1.135,-1.135,-1.1354,-1.1359,-1.1361,-1.1367,-1.137,-1.1375,-1.1366,-1.1354,-1.1386,-1.1366,-1.1383,-1.1383,-1.1389,-1.1389,-1.1444,-1.1394,-1.1394,-1.1394,-1.1394,0,-1.1358,-1.1374,-1.1361,-1.1371,-1.1389,-1.1377,-1.1395,-1.1392,-1.1392,-1.1401,-1.1388,-1.1397,-1.1385,-1.1393,-1.1387,-1.1402,-1.1404,-1.1401,-1.1399,-1.1402,-1.1402,-1.1403,-1.14,-1.1395,-1.1395,-1.1395,-1.1395,0,-1.1403,-1.1395,-1.1412,-1.1408,-1.1407,-1.142,-1.1417,-1.1426,-1.1421,-1.1433,-1.1435,-1.1428,-1.1436,-1.1428,-1.1437,-1.1432,-1.1453,-1.1448,-1.1452,-1.145,-1.1467,-1.1465,-1.1523,-1.153,-1.1477,-1.1478,-1.1478,0,-1.143,-1.1442,-1.1439,-1.1444,-1.1444,-1.1452,-1.1456,-1.1446,-1.145,-1.1452,-1.1461,-1.1468,-1.1473,-1.1488,-1.1483,-1.1489,-1.1483,-1.1504,-1.1484,-1.1486,-1.1482,-1.1481,-1.1482,-1.1507,-1.1508,-1.1508,-1.1509,0,-1.1479,-1.1474,-1.1481,-1.1485,-1.149,-1.1494,-1.1496,-1.1501,-1.149,-1.1496,-1.1504,-1.1508,-1.1516,-1.1523,-1.1528,-1.1527,-1.1516,-1.1515,-1.1519,-1.1521,-1.1522,-1.152,-1.1461,-1.1513,-1.1513,-1.1512,-1.1512,-1.1512,-1.1515,-1.1525,-1.1524,-1.1531,-1.1531,-1.1533,-1.1541,-1.1537,-1.1544,-1.1549,-1.1543,-1.1553,-1.1553,-1.1558,-1.1558,-1.1566,-1.1557,-1.1563,-1.1565,-1.1566,-1.1568,-1.1522,-1.1567,-1.1567,-1.1567,-1.1566,-1.1566,0,-1.1563,-1.1561,-1.1567,-1.157,-1.1576,-1.1565,-1.1567,-1.1572,-1.1581,-1.1581,-1.1587,-1.1596,-1.1602,-1.1598,-1.1604,-1.1611,-1.1606,-1.1613,-1.1611,-1.1611,-1.1575,-1.1571,-1.1616,-1.1616,-1.1616,-1.1616,-1.1616,-1.1616,-1.1588,-1.1602,-1.1597,-1.1612,-1.161,-1.1619,-1.1621,-1.1623,-1.1623,-1.1634,-1.1639,-1.1637,-1.1635,-1.1641,-1.1646,-1.1645,-1.1647,-1.1655,-1.1652,-1.1619,-1.1614,-1.1609,-1.1604,-1.1656,-1.1656,-1.1687,-1.1687,-1.1687]},{"header":{"parameterUnit":"m.s-1","parameterCategory":1,"la1":30.2991,"la2":30.254,"lo1":-89.0895,"lo2":-89.0444,"dy":0.0017,"dx":0.0017,"nx":28,"ny":28,"refTime":"2024-05-25T21:00:00:Z","depth":0,"parameterNumber":3,"parameterNumberName":"V-component_of_WINDS"},"data":[0,0,0,0,0,0,0,0,0,0,0,0,0,0,0,0,0,0,0,0,0,0,0,0,0,0,0,0,0,0,0,0,0,0,0,0,0,0,0,0,0,0,0,0,0,0,0,0,0,0,0,0,0,0,0,0,0,0,5.3781,5.378,0,5.3701,5.37,5.3699,5.3644,5.3643,5.3643,5.3642,5.3556,5.3554,5.3552,0,0,0,0,0,0,0,0,0,0,0,0,0,5.3884,5.3882,5.3781,5.378,5.3779,5.3701,5.37,5.3698,5.3644,5.3643,5.3643,5.3642,5.3556,5.3554,5.3552,0,0,0,0,0,0,0,0,0,0,0,0,0,5.3825,5.3882,5.3781,5.3742,5.3738,5.3701,5.3699,5.3698,5.3644,5.3643,5.3643,5.3642,5.3557,5.3554,5.3551,5.3545,0,0,5.3542,5.3541,0,0,0,0,0,0,0,0,5.3828,5.3821,5.3749,5.3745,5.374,5.3682,5.3704,5.3647,5.3644,5.3679,5.3642,5.3642,5.3598,5.3591,5.3577,5.3541,5.3537,5.3542,5.354,5.3539,5.3538,0,0,0,0,0,0,0,5.3832,5.3824,5.3749,5.3748,5.3742,5.3728,5.3719,5.3693,5.3643,5.3676,5.3672,5.3664,5.3595,5.358,5.3575,5.3536,5.3542,5.354,5.3538,5.3537,5.3493,5.3493,0,0,0,0,0,0,5.3843,5.3828,5.3751,5.3746,5.3784,5.3727,5.3716,5.3701,5.3643,5.3634,5.3664,5.3661,5.3586,5.3579,5.3572,5.3562,5.3539,5.3536,5.3535,5.3492,5.3493,5.3494,0,0,0,0,0,0,5.3845,5.3837,5.3755,5.3786,5.3775,5.3725,5.3708,5.37,5.3685,5.3634,5.3624,5.3659,5.3585,5.3576,5.3553,5.3559,5.3535,5.3532,5.3492,5.3493,5.3493,5.3543,0,0,0,0,0,0,5.3849,5.3838,5.3835,5.3786,5.3773,5.3738,5.3709,5.3698,5.3681,5.3676,5.3626,5.3617,5.3584,5.3558,5.355,5.3554,5.353,5.3491,5.3492,5.3493,5.354,5.3545,5.3549,0,0,0,0,0,5.3852,5.3851,5.3836,5.3827,5.3769,5.3738,5.3731,5.3694,5.3681,5.3678,5.3646,5.3619,5.3559,5.3556,5.3547,5.355,5.349,5.3492,5.3493,5.3538,5.3544,5.3549,0,0,0,0,0,0,5.3899,5.3844,5.3826,5.3809,5.3779,5.3729,5.3724,5.3701,5.3673,5.3669,5.3623,5.3613,5.3595,5.357,5.3567,5.3542,5.3522,5.3521,5.3559,5.3564,5.3569,5.3575,5.3528,0,0,0,0,0,5.3908,5.3889,5.3841,5.383,5.3816,5.3773,5.3758,5.3733,5.37,5.3686,5.3652,5.362,5.3594,5.3577,5.3551,5.3537,5.3526,5.3534,5.3539,5.3543,5.3543,5.3536,5.354,5.3498,5.3498,5.3498,0,0,5.3925,5.3892,5.3882,5.3839,5.3813,5.3794,5.3763,5.3743,5.3728,5.3682,5.366,5.3634,5.3595,5.3577,5.3567,5.3556,5.3552,5.3545,5.3548,5.3546,5.3538,5.3542,5.3545,5.3499,5.3499,5.3499,0,0,5.3946,5.3919,5.3909,5.3884,5.3846,5.3818,5.3816,5.377,5.3752,5.3729,5.3695,5.3676,5.3632,5.3607,5.3588,5.3603,5.3578,5.3596,5.3619,5.3612,5.3616,5.3618,5.3625,5.3628,5.3596,5.3596,5.3596,0,5.3971,5.3942,5.3906,5.3889,5.3871,5.3832,5.3821,5.3798,5.3753,5.3741,5.3729,5.3676,5.3646,5.3623,5.3627,5.3613,5.3609,5.3601,5.3619,5.3621,5.3623,5.3629,5.3631,5.3599,5.3598,5.3598,5.3598,0,5.3976,5.3957,5.3953,5.3913,5.3895,5.3881,5.3842,5.3827,5.3804,5.3778,5.3756,5.372,5.3686,5.3679,5.3654,5.3653,5.3647,5.3627,5.3606,5.363,5.3635,5.3637,5.3602,5.3601,5.3601,5.36,0,0,5.4022,5.3966,5.3965,5.3947,5.3904,5.3888,5.3873,5.3842,5.3832,5.3802,5.3789,5.3754,5.3737,5.3716,5.3689,5.3683,5.37,5.3664,5.3663,5.3673,5.3697,5.3713,5.3716,5.3683,5.3683,5.3683,5.3701,0,5.4038,5.4011,5.3979,5.3962,5.3944,5.3908,5.3895,5.3867,5.3842,5.3823,5.3795,5.3772,5.375,5.3737,5.373,5.3699,5.3704,5.3698,5.367,5.3669,5.3682,5.3718,5.3734,5.3752,5.3703,5.3703,5.3703,0,5.4052,5.4028,5.401,5.3971,5.3963,5.3952,5.3923,5.3905,5.3873,5.3855,5.3834,5.3806,5.3788,5.377,5.3745,5.3742,5.3728,5.3712,5.3712,5.3708,5.3688,5.3716,5.3757,5.3761,5.3705,5.3705,5.3705,0,5.4089,5.4052,5.4037,5.4023,5.3977,5.3971,5.3951,5.3919,5.3903,5.3877,5.3867,5.3839,5.3823,5.3802,5.3767,5.3757,5.3747,5.3725,5.3732,5.3733,5.3732,5.3732,5.3772,5.3722,5.3722,5.3722,5.3722,0,5.411,5.4101,5.4054,5.4045,5.4034,5.3998,5.3988,5.3964,5.3937,5.3922,5.3888,5.3876,5.383,5.3812,5.3785,5.377,5.3763,5.3748,5.3741,5.3751,5.3754,5.3742,5.374,5.3723,5.3723,5.3723,5.3723,0,5.4149,5.4118,5.41,5.4059,5.4049,5.4043,5.4007,5.3997,5.3972,5.3954,5.3948,5.3907,5.3884,5.3848,5.3814,5.3795,5.3786,5.3773,5.3797,5.3793,5.3803,5.3803,5.3837,5.384,5.3788,5.3789,5.3789,0,5.4165,5.4158,5.4118,5.4107,5.4089,5.4072,5.4057,5.4021,5.4007,5.3972,5.3966,5.3941,5.3919,5.3885,5.3852,5.3826,5.3813,5.3827,5.3809,5.3821,5.3815,5.3816,5.3816,5.3831,5.3832,5.3832,5.3833,0,5.4196,5.4182,5.4163,5.4139,5.4123,5.4102,5.4079,5.4072,5.4031,5.4017,5.3995,5.3978,5.3945,5.3921,5.3892,5.387,5.3845,5.3839,5.384,5.385,5.3865,5.3859,5.381,5.3838,5.3838,5.3837,5.3837,5.3837,5.4225,5.4218,5.419,5.417,5.415,5.413,5.412,5.4095,5.4076,5.4048,5.4027,5.4007,5.3977,5.3935,5.3915,5.3899,5.3887,5.3887,5.3888,5.3889,5.3893,5.3868,5.3893,5.3892,5.3892,5.3892,5.3892,0,5.4256,5.4237,5.4219,5.419,5.4175,5.4156,5.413,5.4119,5.4102,5.4077,5.4057,5.4033,5.401,5.3977,5.3952,5.3945,5.3933,5.394,5.394,5.3936,5.3904,5.3907,5.395,5.395,5.395,5.395,5.395,5.395,5.427,5.4258,5.4241,5.4219,5.4199,5.4181,5.4168,5.415,5.4131,5.4106,5.4088,5.4067,5.4039,5.4012,5.3991,5.3981,5.3974,5.3985,5.3972,5.3943,5.3938,5.3932,5.3935,5.3983,5.3983,5.4005,5.4005,5.4005]}]]